Change the Weather History Date:

Thursday, January 2, 2014

  Actual Average Record
Temperature  
Mean Temperature 52 °F -  
Max Temperature 59 °F - - ()
Min Temperature 44 °F - - ()
Degree Days  
Heating Degree Days 14    
Growing Degree Days 2 (Base 50)    
Moisture  
Dew Point 48 °F    
Average Humidity 85    
Maximum Humidity 100    
Minimum Humidity 72    
Precipitation  
Precipitation 0.00 in - - ()
Sea Level Pressure  
Sea Level Pressure 29.89 in    
Wind  
Wind Speed 9 mph ()    
Max Wind Speed 17 mph    
Max Gust Speed 31 mph    
Visibility 5.9 miles    
Events Fog , Rain    
T = Trace of Precipitation, MM = Missing Value Source: Averaged Metar Reports

Daily Weather History Graph

Daily Weather History Graph

Search for Another Location

Airport or City:

Trip Planner

Search our weather history database for the weather conditions in past years. The results will help you decide how hot, cold, wet, or windy it might be!

Date:

Astronomy

Jan. 02, 2014 Rise Set
Actual Time 8:14 AM CET 5:14 PM CET
Civil Twilight 7:42 AM CET 5:46 PM CET
Nautical Twilight 7:05 AM CET 6:23 PM CET
Astronomical Twilight 6:30 AM CET 6:58 PM CET
Moon 8:40 AM CET (1/2) 6:56 PM CET (1/2)
Length of Visible Light 10h 04m
Length of Day
8h 59m
New Moon, 2% of the Moon is Illuminated
Jan 2
New Moon
Jan 8
First Quarter
Jan 16
Full
Jan 24
Last Quarter
Jan 30
New

Hourly Weather History & Observations

Time (CET) Temp. Windchill Dew Point Humidity Pressure Visibility Wind Dir Wind Speed Gust Speed Precip Events Conditions
12:00 AM 53.6 °F - 46.4 °F 77% 29.92 in 6.2 mi SE 12.7 mph - N/A   Overcast
12:30 AM 53.6 °F - 44.6 °F 72% 29.89 in 6.2 mi SE 12.7 mph - N/A   Overcast
1:00 AM 53.6 °F - 44.6 °F 72% 29.89 in 6.2 mi SE 15.0 mph - N/A   Overcast
1:30 AM 51.8 °F - 46.4 °F 82% 29.89 in 6.2 mi ESE 10.4 mph - N/A Rain Light Rain
2:00 AM 51.8 °F - 46.4 °F 82% 29.86 in 6.2 mi SE 8.1 mph - N/A Rain Light Rain
2:30 AM 53.6 °F - 46.4 °F 77% 29.86 in 6.2 mi SE 13.8 mph - N/A Rain Light Rain
3:00 AM 53.6 °F - 46.4 °F 77% 29.86 in 6.2 mi SE 13.8 mph - N/A Rain Light Rain
3:30 AM 51.8 °F - 48.2 °F 88% 29.83 in 6.2 mi SE 16.1 mph - N/A Rain Light Rain
4:00 AM 53.6 °F - 48.2 °F 82% 29.83 in 6.2 mi SE 15.0 mph - N/A Rain Light Rain
4:30 AM 51.8 °F - 48.2 °F 88% 29.83 in 6.2 mi SSE 11.5 mph - N/A   Mostly Cloudy
5:00 AM 53.6 °F - 48.2 °F 82% 29.80 in 6.2 mi SE 17.3 mph 31.1 mph N/A   Overcast
5:30 AM 53.6 °F - 48.2 °F 82% 29.80 in 6.2 mi SE 15.0 mph - N/A   Overcast
6:00 AM 53.6 °F - 48.2 °F 82% 29.83 in 6.2 mi SE 13.8 mph - N/A   Mostly Cloudy
6:30 AM 53.6 °F - 48.2 °F 82% 29.80 in 6.2 mi SE 15.0 mph - N/A   Mostly Cloudy
7:00 AM 53.6 °F - 48.2 °F 82% 29.83 in 6.2 mi SSE 10.4 mph - N/A   Mostly Cloudy
7:30 AM 53.6 °F - 48.2 °F 82% 29.83 in 6.2 mi SSE 10.4 mph - N/A   Mostly Cloudy
8:00 AM 53.6 °F - 48.2 °F 82% 29.83 in 6.2 mi SE 12.7 mph - N/A   Overcast
8:30 AM 53.6 °F - 48.2 °F 82% 29.86 in 6.2 mi SSE 9.2 mph - N/A   Mostly Cloudy
9:00 AM 53.6 °F - 48.2 °F 82% 29.86 in 6.2 mi SSE 10.4 mph - N/A   Mostly Cloudy
9:30 AM 53.6 °F - 48.2 °F 82% 29.86 in 6.2 mi SSE 10.4 mph - N/A   Scattered Clouds
10:00 AM 55.4 °F - 50.0 °F 82% 29.86 in 6.2 mi SSE 11.5 mph - N/A   Unknown
10:30 AM 55.4 °F - 50.0 °F 82% 29.86 in 6.2 mi SSE 9.2 mph - N/A   Unknown
11:00 AM 55.4 °F - 50.0 °F 82% 29.89 in 6.2 mi South 5.8 mph - N/A Rain Light Rain
11:30 AM 55.4 °F - 51.8 °F 88% 29.92 in 6.2 mi South 4.6 mph - N/A Rain Light Rain
12:00 PM 55.4 °F - 51.8 °F 88% 29.92 in 6.2 mi Variable 2.3 mph - N/A Rain Light Rain
12:30 PM 53.6 °F - 51.8 °F 94% 29.92 in 5.0 mi Variable 2.3 mph - N/A Rain Light Rain
1:00 PM 55.4 °F - 51.8 °F 88% 29.92 in 6.2 mi Calm Calm - N/A   Overcast
1:30 PM 55.4 °F - 53.6 °F 94% 29.89 in 6.2 mi SSE 3.5 mph - N/A   Overcast
2:00 PM 55.4 °F - 51.8 °F 88% 29.89 in 6.2 mi SSE 3.5 mph - N/A   Mostly Cloudy
2:30 PM 57.2 °F - 51.8 °F 82% 29.89 in 6.2 mi ESE 4.6 mph - N/A   Unknown
3:00 PM 57.2 °F - 51.8 °F 82% 29.89 in 6.2 mi ESE 5.8 mph - N/A   Unknown
3:30 PM 57.2 °F - 51.8 °F 82% 29.89 in 6.2 mi SSE 9.2 mph - N/A   Unknown
4:00 PM 57.2 °F - 50.0 °F 77% 29.89 in 6.2 mi South 4.6 mph - N/A   Unknown
4:30 PM 59.0 °F - 50.0 °F 72% 29.89 in 6.2 mi Calm Calm - N/A   Unknown
5:00 PM 53.6 °F - 50.0 °F 88% 29.89 in 6.2 mi WNW 1.2 mph - N/A   Unknown
5:30 PM 51.8 °F - 48.2 °F 88% 29.92 in 6.2 mi SSE 1.2 mph - N/A   Unknown
6:00 PM 48.2 °F - 46.4 °F 93% 29.92 in - ESE 2.3 mph - N/A   Mist
6:30 PM 46.4 °F 45.2 °F 44.6 °F 93% 29.89 in 6.2 mi Variable 3.5 mph - N/A   Unknown
7:00 PM 46.4 °F - 44.6 °F 93% 29.92 in 0.5 mi Variable 2.3 mph - N/A Fog Fog
7:30 PM 44.6 °F 42.2 °F 42.8 °F 93% 29.92 in 0.7 mi South 4.6 mph - N/A Fog Patches of Fog
8:00 PM 46.4 °F 45.2 °F 44.6 °F 93% 29.95 in 6.2 mi Variable 3.5 mph - N/A   Unknown
8:30 PM 46.4 °F - 46.4 °F 100% 29.95 in 3.7 mi Calm Calm - N/A   Unknown
9:00 PM 44.6 °F - 44.6 °F 100% 29.95 in 6.2 mi SSE 2.3 mph - N/A   Unknown
9:30 PM 48.2 °F - 46.4 °F 93% 29.95 in 6.2 mi SSE 8.1 mph - N/A   Unknown
10:00 PM 46.4 °F 43.5 °F 44.6 °F 93% 29.95 in 6.2 mi South 5.8 mph - N/A   Unknown
10:30 PM 48.2 °F - 44.6 °F 87% 29.95 in 6.2 mi SE 6.9 mph - N/A   Scattered Clouds
11:00 PM 46.4 °F 42.9 °F 42.8 °F 87% 29.95 in 6.2 mi South 6.9 mph - N/A   Scattered Clouds
11:30 PM 46.4 °F 43.5 °F 44.6 °F 93% 29.98 in 6.2 mi SSE 5.8 mph - N/A   Mostly Cloudy